Darstellungsparameter: Aktuell verwendete Einstellungen:
Skalierung der Graphiken ... ?
xyx+y,   Skalierungsfaktor:      Skalierung: Modus: x, Faktor: 1
Darstellungszeitraum ... ?
Vom - - bis: - -   Zeitraum: 14.04.2021 - 14.04.2021
Min/Max/Avg-Anzeige ... ?
Zeige MMA aktuell
Zeige MMA Monat
Zeige MMA alles
Zeige --A aktuell
Zeige --A Monat
Zeige --A alles
Keine MMA-Anzeige
MMA:
Minimum Maximum Average (ber die Originaldaten)
MMA-Basis: 23.02.2003 - 16.08.2019
Quicknavigation für Darstellung... ?
Tage:      1T, 2T, 3T, 5T -1T -2T -3T -5T +1T +2T +3T +5T
Wochen: 1W, 2W, 3W -1W -2W -3W +1W +2W +3W
Monate: 1M, 3M, 6M -1M -3M -6M +1M +3M +6M
Jahre:    1J, 3J, 5J, 10J -1J -3J -5J -10J +1J +3J +5J +10J
Nutze für die Darstellung ... ?
Originaldaten oder Mittelwerte auf ...
Stundenbasis Tagesbasis Wochenbasis
Monatsbasis Jahresbasis      Datenbasis: Original-Daten
Darstellen als:
Statistik (Auto) Statistik J:M      Darstellung:

Der gewünschte Datumsbereich war nicht gültig/verfügbar und wurde korrigiert....
Das angegebene Enddatum (15.08.2024 23:59:59) liegt in der Zukunft.
Das angegebene Startdatum (16.02.2024 00:00:00) liegt in der Zukunft.


Zur Graphik,    zurück zur Übersicht aller Sensoren.
 
Tabellarische Datenbersicht: ?
 
Sensor: Nr:Datum:Temp:Feuchte:Taupunkt:
Aussen-T/F 1 14-04-2021 02:00:00 -0.2 C 92 % -1.34 C
2 14-04-2021 02:05:00 -0.2 C 92 % -1.34 C
3 14-04-2021 02:10:00 -0.2 C 92 % -1.34 C
4 14-04-2021 02:15:00 -0.3 C 92 % -1.44 C
5 14-04-2021 02:20:00 -0.3 C 93 % -1.29 C
6 14-04-2021 02:25:00 -0.3 C 93 % -1.29 C
7 14-04-2021 02:30:00 -0.4 C 93 % -1.39 C
8 14-04-2021 02:35:00 -0.4 C 93 % -1.39 C
9 14-04-2021 02:40:00 -0.4 C 93 % -1.39 C
10 14-04-2021 02:45:00 -0.6 C 93 % -1.59 C
11 14-04-2021 02:50:00 -0.6 C 93 % -1.59 C
12 14-04-2021 02:55:00 -0.6 C 93 % -1.59 C
13 14-04-2021 03:00:00 -0.6 C 93 % -1.59 C
14 14-04-2021 03:05:00 -0.6 C 93 % -1.59 C
15 14-04-2021 03:10:00 -0.7 C 93 % -1.69 C
16 14-04-2021 03:15:00 -0.7 C 93 % -1.69 C
17 14-04-2021 03:20:00 -0.7 C 93 % -1.69 C
18 14-04-2021 03:25:00 -0.7 C 93 % -1.69 C
19 14-04-2021 03:30:00 -0.8 C 93 % -1.79 C
20 14-04-2021 03:35:00 -0.8 C 93 % -1.79 C
21 14-04-2021 03:40:00 -0.8 C 93 % -1.79 C
22 14-04-2021 03:45:00 -0.9 C 93 % -1.89 C
23 14-04-2021 03:50:00 -0.9 C 93 % -1.89 C
24 14-04-2021 03:55:00 -0.9 C 93 % -1.89 C
25 14-04-2021 04:00:00 -1 C 93 % -1.99 C
Sensor: Nr:Datum:Temp:Feuchte:Taupunkt:
Aussen-T/F 26 14-04-2021 04:05:00 -1 C 94 % -1.84 C
27 14-04-2021 04:10:00 -1 C 94 % -1.84 C
28 14-04-2021 04:15:00 -1 C 94 % -1.84 C
29 14-04-2021 04:20:00 -1.1 C 94 % -1.94 C
30 14-04-2021 04:25:00 -1.1 C 94 % -1.94 C
31 14-04-2021 04:30:00 -1.1 C 94 % -1.94 C
32 14-04-2021 04:35:00 -1.1 C 94 % -1.94 C
33 14-04-2021 04:40:00 -1.1 C 94 % -1.94 C
34 14-04-2021 04:45:00 -1.1 C 94 % -1.94 C
35 14-04-2021 04:50:00 -1.1 C 94 % -1.94 C
36 14-04-2021 04:55:00 -1.1 C 94 % -1.94 C
37 14-04-2021 05:00:00 -1.1 C 94 % -1.94 C
38 14-04-2021 05:05:00 -1.1 C 94 % -1.94 C
39 14-04-2021 05:10:00 -1.2 C 94 % -2.04 C
40 14-04-2021 05:15:00 -1.2 C 94 % -2.04 C
41 14-04-2021 05:20:00 -1.2 C 94 % -2.04 C
42 14-04-2021 05:25:00 -1.3 C 94 % -2.14 C
43 14-04-2021 05:30:00 -1.3 C 94 % -2.14 C
44 14-04-2021 05:35:00 -1.3 C 94 % -2.14 C
45 14-04-2021 05:40:00 -1.4 C 94 % -2.24 C
46 14-04-2021 05:45:00 -1.5 C 94 % -2.34 C
47 14-04-2021 05:50:00 -1.6 C 94 % -2.44 C
48 14-04-2021 05:55:00 -1.6 C 94 % -2.44 C
49 14-04-2021 06:00:00 -1.7 C 94 % -2.54 C
50 14-04-2021 06:05:00 -1.7 C 94 % -2.54 C
Sensor: Nr:Datum:Temp:Feuchte:Taupunkt:
Aussen-T/F 51 14-04-2021 06:10:00 -1.7 C 94 % -2.54 C
52 14-04-2021 06:15:00 -1.7 C 94 % -2.54 C
53 14-04-2021 06:20:00 -1.7 C 94 % -2.54 C
54 14-04-2021 06:25:00 -1.7 C 94 % -2.54 C
55 14-04-2021 06:30:00 -1.7 C 94 % -2.54 C
56 14-04-2021 06:35:00 -1.7 C 94 % -2.54 C
57 14-04-2021 06:40:00 -1.7 C 94 % -2.54 C
58 14-04-2021 06:45:00 -1.7 C 94 % -2.54 C
59 14-04-2021 06:50:00 -1.7 C 94 % -2.54 C
60 14-04-2021 06:55:00 -1.7 C 94 % -2.54 C
61 14-04-2021 07:00:00 -1.8 C 94 % -2.64 C
62 14-04-2021 07:05:00 -1.8 C 94 % -2.64 C
63 14-04-2021 07:10:00 -1.8 C 94 % -2.64 C
64 14-04-2021 07:15:00 -1.8 C 94 % -2.64 C
65 14-04-2021 07:20:00 -1.8 C 94 % -2.64 C
66 14-04-2021 07:25:00 -1.8 C 94 % -2.64 C
67 14-04-2021 07:30:00 -1.8 C 94 % -2.64 C
68 14-04-2021 07:35:00 -1.7 C 94 % -2.54 C
69 14-04-2021 07:40:00 -1.7 C 95 % -2.39 C
70 14-04-2021 07:45:00 -1.7 C 95 % -2.39 C
71 14-04-2021 07:50:00 -1.7 C 95 % -2.39 C
72 14-04-2021 07:55:00 -1.6 C 95 % -2.29 C
73 14-04-2021 08:00:00 -1.5 C 95 % -2.19 C
74 14-04-2021 08:05:00 -1.4 C 95 % -2.1 C
75 14-04-2021 08:10:00 -1.4 C 95 % -2.1 C
Sensor: Nr:Datum:Temp:Feuchte:Taupunkt:
Aussen-T/F 76 14-04-2021 08:15:00 -1.4 C 95 % -2.1 C
77 14-04-2021 08:20:00 -1.4 C 95 % -2.1 C
78 14-04-2021 08:25:00 -1.3 C 95 % -2 C
79 14-04-2021 08:30:00 -1.3 C 95 % -2 C
80 14-04-2021 08:35:00 -1.3 C 95 % -2 C
81 14-04-2021 08:40:00 -1.2 C 95 % -1.9 C
82 14-04-2021 08:45:00 -1.2 C 95 % -1.9 C
83 14-04-2021 08:50:00 -1.1 C 95 % -1.8 C
84 14-04-2021 08:55:00 -1.1 C 95 % -1.8 C
85 14-04-2021 09:00:00 -0.9 C 95 % -1.6 C
86 14-04-2021 09:05:00 -0.8 C 95 % -1.5 C
87 14-04-2021 09:10:00 -0.7 C 95 % -1.4 C
88 14-04-2021 09:15:00 -0.7 C 95 % -1.4 C
89 14-04-2021 09:20:00 -0.6 C 95 % -1.3 C
90 14-04-2021 09:25:00 -0.4 C 95 % -1.1 C
91 14-04-2021 09:30:00 -0.3 C 95 % -1 C
92 14-04-2021 09:35:00 -0.2 C 96 % -0.76 C
93 14-04-2021 09:40:00 -0.1 C 95 % -0.8 C
94 14-04-2021 09:45:00 0 C 96 % -0.56 C
95 14-04-2021 09:50:00 0.2 C 96 % -0.36 C
96 14-04-2021 09:55:00 0.3 C 96 % -0.26 C
97 14-04-2021 10:00:00 0.4 C 96 % -0.16 C
98 14-04-2021 10:05:00 0.6 C 96 % 0.04 C
99 14-04-2021 10:10:00 0.8 C 96 % 0.24 C
100 14-04-2021 10:15:00 1 C 96 % 0.44 C
Sensor: Nr:Datum:Temp:Feuchte:Taupunkt:
Aussen-T/F 101 14-04-2021 10:20:00 1.2 C 96 % 0.63 C
102 14-04-2021 10:25:00 1.4 C 96 % 0.83 C
103 14-04-2021 10:30:00 1.7 C 96 % 1.13 C
104 14-04-2021 10:35:00 1.9 C 96 % 1.33 C
105 14-04-2021 10:40:00 2.2 C 96 % 1.63 C
106 14-04-2021 10:45:00 2.4 C 96 % 1.83 C
107 14-04-2021 10:50:00 2.7 C 95 % 1.98 C
108 14-04-2021 10:55:00 3 C 95 % 2.28 C
109 14-04-2021 11:00:00 3.3 C 94 % 2.43 C
110 14-04-2021 11:05:00 3.7 C 91 % 2.37 C
111 14-04-2021 11:10:00 4 C 89 % 2.36 C
112 14-04-2021 11:15:00 4.4 C 83 % 1.77 C
113 14-04-2021 11:20:00 5 C 78 % 1.49 C
114 14-04-2021 11:25:00 5.5 C 77 % 1.8 C
115 14-04-2021 11:30:00 5.8 C 64 % -0.47 C
116 14-04-2021 11:35:00 6.3 C 62 % -0.43 C
117 14-04-2021 11:40:00 6.5 C 60 % -0.69 C
118 14-04-2021 11:45:00 6.7 C 56 % -1.44 C
119 14-04-2021 11:50:00 7.1 C 54 % -1.56 C
120 14-04-2021 11:55:00 7.4 C 54 % -1.28 C
121 14-04-2021 12:00:00 7.7 C 53 % -1.26 C
122 14-04-2021 12:05:00 7.8 C 53 % -1.17 C
123 14-04-2021 12:10:00 7.7 C 51 % -1.78 C
124 14-04-2021 12:15:00 7.6 C 49 % -2.41 C
125 14-04-2021 12:20:00 7.5 C 49 % -2.51 C
Sensor: Nr:Datum:Temp:Feuchte:Taupunkt:
Aussen-T/F 126 14-04-2021 12:25:00 7.5 C 50 % -2.23 C
127 14-04-2021 12:30:00 7.4 C 48 % -2.87 C
128 14-04-2021 12:35:00 7.3 C 50 % -2.42 C
129 14-04-2021 12:40:00 7.3 C 48 % -2.97 C
130 14-04-2021 12:45:00 7.3 C 47 % -3.25 C
131 14-04-2021 12:50:00 7.4 C 50 % -2.33 C

Legende:
   Min
   Max


Maximal/Minimal-Werte vom 23.02.2003 - 16.08.2019

Sensor Min Max Avg
Temp
(Aussen-T/F)
-16.4 °C
20-12-2009  01:30:01
40.4 °C
25-07-2019  16:20:00
11.22 °C
Feuchte
(Aussen-T/F)
18 %
17-07-2015  15:55:00
100 %
07-10-2012  03:05:00
76.99 %

Die Daten stammen von einer Davis Vantage Pro 2 Wetter-Station und werden unter Linux mit der Software wview2wettercgi und aufbereitet. Alle Angaben erfolgen ohne Gewähr für ihre Vollständigkeit oder Richtigkeit.
Kontakt: Rainer Krienke krienke@uni-koblenz.de . Meine Webseiten an der Uni Koblenz oder privat.
Version: $Revision: 0.78 $